This is the latest recevied weather packets stored in our database for station/object K7DC. If no packets are shown the sender has not sent any weather packets the latest 10 day(s).
| Time | Temp. | Humidity | Pressure | Rain* | Wind** | Luminosity | Snow |
|---|---|---|---|---|---|---|---|
| 1777777331 | 26.67° C | 26% | 1012 hPa | 0 mm | - | 0 W/m² | - |
| 1777777028 | 26.67° C | 25% | 1011.8 hPa | 0 mm | - | 0 W/m² | - |
| 1777776726 | 26.67° C | 25% | 1012 hPa | 0 mm | - | 0 W/m² | - |
| 1777776422 | 26.67° C | 25% | 1011.9 hPa | 0 mm | - | 0 W/m² | - |
| 1777776120 | 26.67° C | 25% | 1011.9 hPa | 0 mm | - | 0 W/m² | - |
| 1777775816 | 26.67° C | 25% | 1011.6 hPa | 0 mm | - | 0 W/m² | - |
| 1777775513 | 27.22° C | 25% | 1011.7 hPa | 0 mm | - | 0 W/m² | - |
| 1777775209 | 27.22° C | 25% | 1011.6 hPa | 0 mm | - | 0 W/m² | - |
| 1777774908 | 27.22° C | 24% | 1011.6 hPa | 0 mm | - | 0 W/m² | - |
| 1777774605 | 27.22° C | 24% | 1011.7 hPa | 0 mm | - | 1 W/m² | - |
| 1777774302 | 27.78° C | 24% | 1011.5 hPa | 0 mm | - | 1 W/m² | - |
| 1777773999 | 27.78° C | 24% | 1011.5 hPa | 0 mm | - | 3 W/m² | - |
| 1777773697 | 27.78° C | 24% | 1011.6 hPa | 0 mm | - | 5 W/m² | - |
| 1777773393 | 28.33° C | 24% | 1011.7 hPa | 0 mm | - | 8 W/m² | - |
| 1777773090 | 28.33° C | 24% | 1011.6 hPa | 0 mm | - | 13 W/m² | - |
| 1777772786 | 28.33° C | 23% | 1011.6 hPa | 0 mm | - | 19 W/m² | - |
| 1777772484 | 28.33° C | 23% | 1011.5 hPa | 0 mm | - | 28 W/m² | - |
| 1777772181 | 28.33° C | 23% | 1011.9 hPa | 0 mm | - | 41 W/m² | - |
| 1777771879 | 28.89° C | 23% | 1011.7 hPa | 0 mm | - | 39 W/m² | - |
| 1777771576 | 28.89° C | 23% | 1011.7 hPa | 0 mm | - | 38 W/m² | - |
| 1777771273 | 28.89° C | 23% | 1011.7 hPa | 0 mm | - | 41 W/m² | - |
| 1777770969 | 28.89° C | 23% | 1011.6 hPa | 0 mm | - | 37 W/m² | - |
| 1777770667 | 28.89° C | 22% | 1011.9 hPa | 0 mm | - | 41 W/m² | - |
| 1777770363 | 28.89° C | 22% | 1011.7 hPa | 0 mm | - | 56 W/m² | - |
| 1777770060 | 29.44° C | 22% | 1011.8 hPa | 0 mm | - | 73 W/m² | - |
* Rain latest hour (hover to see other rain measurements)
** Current wind speed in m/s (hover to see current wind gust speed)